OBJECT C

Satellite information

Favourite Embed

Satellite Type and Status

UNKNOWNIN ORBIT

Key statistics

Satellite OBJECT C at a glance.

Uptime

16

Days in orbit

Revolutions

≈ 15.1

Per day

Orbit

SSO

Sun Synchronous Orbit

Inclination

97.7

Latest

Satellite identification and parameters

Extended collection of information and parameters for OBJECT C.

Object identification

Identified? True

Debris? False

Object name: OBJECT C

International designator: 2025-226C

Object number (NORAD): 65940

Object ID (CCSDS): 65940

Country: PEOPLES REPUBLIC OF CHINA (PRC)

Current information (Y/N): Y

Orbital parameters

Period: 95.262 minutes

Inclination: 97.6572 deg

SMA: 6909.408 km

Apoapsis: 541.259 km

Periapsis: 521.286 km

RAAN: 14.1212 deg

Eccentricy: 0.00144536

Argument of periapsis: 224.6675 deg

Mean anomaly: 135.3391 deg

Mean motion: 15.11616174 rev/day

Mean motion (dot): 0.00011542 rev/day2

B* drag term: 0.00068108719 1/REarth

Two-line elements (TLE)

Creation date: Oct. 27, 2025, 2:46 a.m.

Reference frame: TEME

Reference center: EARTH

Epoch: Oct. 26, 2025, 11:08 p.m. UTC

TLE line 0: 0 OBJECT C

TLE line 1: 1 65940U 25226C 25299.96439578 .00011542 00000-0 68109-3 0 9999

TLE line 2: 2 65940 97.6572 14.1212 0014454 224.6675 135.3391 15.11616174 2395

Live tracking on map

Real-time ground track for satellite OBJECT C.

In-orbit conjunctions

There are no conjunctions computed for OBJECT C, at the moment. Check back to stay up to date, as we update our databases every day.

Go to all conjunctions

Associated space launch

Carried 3 satellites to sun-synchronous orbit, including the Earth observation satellite Jilin-1 Wideband-02B-07. Details TBD.

OBJECT C was lifted into orbit during the mission ‘Gravity-1 | 3 satellites’, on board a Gravity-1 space rocket.

The launch took place on Oct. 11, 2025, 2:20 a.m. from Haiyang Spaceport.

For more information about the launch, click the button.

Launch to space Gravity-1 | 3 satellites
Gravity-1 | 3 satellites

Agency: N/A

Status: Launch Successful

Launch date: Oct. 11, 2025, 2:20 a.m. UTC

Rocket: Gravity-1

Launch pad: Haiyang Spaceport

Location: Sea Launch

...

Latest news about this satellite

News about space launch
Huge commercial Chinese solid rocket launches 3 satellites from barge in the Yellow Sea

Chinese launch startup Orienspace successfully conducted its second launch late Friday, with a Gravity-1 solid rocket lifting off from a barge in the Yellow Sea. The post Huge commercial Chinese solid rocket launches 3 satellites from barge in the Yellow...


Newsletter sign-up

Weekly statistics, charts and insights to help you stay on top of the space industry.